[[{"header":{"parameterUnit":"m.s-1","parameterCategory":1,"la1":30.2991,"la2":30.254,"lo1":-89.0895,"lo2":-89.0444,"dy":0.0017,"dx":0.0017,"nx":28,"ny":28,"refTime":"2025-07-23T21:00:00:Z","depth":0,"parameterNumber":2,"parameterNumberName":"U-component_of_WINDS"},"data":[0,0,0,0,0,0,0,0,0,0,0,0,0,0,0,0,0,0,0,0,0,0,0,0,0,0,0,0,0,0,0,0,0,0,0,0,0,0,0,0,0,0,0,0,0,0,0,0,0,0,0,0,0,0,0,0,0,0,0.9167,0.9167,0,0.9188,0.9188,0.9189,0.9066,0.9062,0.9059,0.9055,0.9091,0.9095,0.9099,0,0,0,0,0,0,0,0,0,0,0,0,0,0.9031,0.9034,0.9167,0.9167,0.9167,0.9188,0.9189,0.9189,0.9066,0.9062,0.9058,0.9054,0.9089,0.9094,0.91,0,0,0,0,0,0,0,0,0,0,0,0,0,0.9076,0.9035,0.9167,0.9108,0.9103,0.9188,0.9189,0.9189,0.9067,0.9062,0.9057,0.9052,0.9088,0.9094,0.91,0.9246,0,0,0.912,0.9123,0,0,0,0,0,0,0,0,0.9073,0.9081,0.9117,0.9112,0.9107,0.9118,0.9154,0.9209,0.9069,0.9081,0.9055,0.9049,0.9105,0.911,0.9126,0.9248,0.925,0.912,0.9124,0.9127,0.9129,0,0,0,0,0,0,0,0.907,0.9079,0.9176,0.9117,0.9111,0.9085,0.9085,0.9164,0.9124,0.908,0.9071,0.9074,0.9102,0.912,0.9126,0.925,0.912,0.9126,0.913,0.9132,0.9493,0.9499,0,0,0,0,0,0,0.9073,0.9077,0.9175,0.9176,0.9076,0.9092,0.9092,0.912,0.9122,0.9117,0.9079,0.9069,0.9112,0.9119,0.9127,0.9298,0.9127,0.9133,0.9137,0.9487,0.9494,0.9501,0,0,0,0,0,0,0.9071,0.9083,0.9174,0.9124,0.9134,0.9099,0.9133,0.9124,0.9142,0.9121,0.9115,0.9104,0.9108,0.9118,0.9217,0.9297,0.9136,0.9142,0.9481,0.949,0.9498,0.9641,0,0,0,0,0,0,0.9067,0.9083,0.9136,0.9126,0.9137,0.9261,0.9137,0.9128,0.9152,0.9138,0.9143,0.9139,0.9105,0.9208,0.9223,0.9303,0.9147,0.9473,0.9485,0.9495,0.9629,0.9654,0.9675,0,0,0,0,0,0.9063,0.9178,0.9139,0.9151,0.9201,0.9265,0.9272,0.9225,0.9159,0.9213,0.9199,0.9139,0.9286,0.9219,0.9235,0.9319,0.9468,0.9481,0.9494,0.9619,0.9649,0.9674,0,0,0,0,0,0,0.9203,0.9176,0.9132,0.9247,0.9259,0.9244,0.9311,0.9259,0.9294,0.928,0.9225,0.9228,0.9336,0.9337,0.9263,0.946,0.9366,0.9383,0.9455,0.9484,0.9506,0.9504,0.9152,0,0,0,0,0,0.9246,0.9297,0.9272,0.9376,0.9383,0.9347,0.9373,0.9336,0.9348,0.9354,0.9347,0.9365,0.9414,0.9449,0.9494,0.9628,0.9629,0.9694,0.9716,0.9735,0.9751,0.9823,0.9851,0.9543,0.9543,0.9543,0,0,0.9339,0.933,0.9366,0.9404,0.9408,0.9465,0.9352,0.9417,0.946,0.9365,0.9456,0.9453,0.9469,0.9586,0.9637,0.959,0.9836,0.9752,0.9767,0.9772,0.9839,0.9868,0.9894,0.9552,0.955,0.9549,0,0,0.9535,0.9533,0.9618,0.9624,0.9631,0.9605,0.9626,0.9619,0.9611,0.9701,0.9631,0.9683,0.977,0.9783,0.9802,1.0002,0.9948,1.0018,1.0138,1.0209,1.0233,1.0254,1.0326,1.0353,1.0034,1.0034,1.0034,0,0.965,0.9728,0.967,0.9739,0.9759,0.967,0.9758,0.9768,0.9792,0.9809,0.9755,0.986,0.9865,0.9984,1.0032,1.005,1.0074,1.0018,1.0233,1.0254,1.0273,1.0341,1.0368,1.0043,1.0042,1.0041,1.004,0,0.9869,0.9925,0.9994,1.0013,1.004,1.0119,1.0077,1.0112,1.0072,1.0054,1.0147,1.0149,1.0192,1.0218,1.0182,1.0332,1.0302,1.0242,1.0146,1.0312,1.0375,1.0401,1.0055,1.0052,1.0049,1.0047,0,0,1.0157,1.014,1.0167,1.0174,1.0174,1.0218,1.0294,1.0331,1.0363,1.0382,1.0446,1.052,1.0462,1.0484,1.0448,1.051,1.0669,1.0441,1.0441,1.0484,1.0836,1.0882,1.0913,1.0632,1.0637,1.064,1.0834,0,1.0349,1.0472,1.0421,1.0551,1.0603,1.0519,1.0585,1.0594,1.0578,1.0623,1.0607,1.0661,1.058,1.0593,1.065,1.0637,1.0739,1.0622,1.0694,1.0697,1.0693,1.0946,1.0996,1.1179,1.0859,1.0863,1.0866,0,1.059,1.0613,1.0746,1.0735,1.0755,1.0815,1.0845,1.0887,1.0897,1.0882,1.0904,1.0855,1.0932,1.0835,1.0941,1.0863,1.0889,1.0888,1.0894,1.09,1.0793,1.096,1.1236,1.1264,1.0904,1.0901,1.0898,0,1.0787,1.0852,1.0939,1.0948,1.0938,1.0982,1.0981,1.0985,1.101,1.1038,1.1054,1.1092,1.1114,1.1146,1.111,1.1042,1.1222,1.1122,1.1214,1.1215,1.1257,1.1255,1.1542,1.1273,1.1272,1.1272,1.1271,0,1.1007,1.1092,1.1027,1.1082,1.1175,1.1118,1.1214,1.1204,1.1207,1.1261,1.1192,1.1245,1.1192,1.1241,1.1214,1.1307,1.1317,1.1309,1.1301,1.1315,1.1317,1.1333,1.132,1.1279,1.1277,1.1276,1.1275,0,1.1244,1.1203,1.1293,1.1274,1.1272,1.1342,1.1328,1.138,1.1357,1.1426,1.1439,1.1407,1.1461,1.1426,1.1483,1.1464,1.1585,1.1559,1.1581,1.1574,1.1668,1.166,1.1976,1.2015,1.172,1.1723,1.1725,0,1.1387,1.145,1.1437,1.1465,1.1466,1.1514,1.1538,1.1484,1.1513,1.1528,1.1578,1.1625,1.1659,1.175,1.1734,1.1776,1.1751,1.1859,1.1758,1.177,1.1754,1.1751,1.1758,1.1881,1.1884,1.1887,1.1889,0,1.1647,1.1623,1.1657,1.1686,1.1715,1.1736,1.1752,1.178,1.1726,1.1763,1.1814,1.184,1.1894,1.1943,1.1978,1.1981,1.1928,1.1921,1.1944,1.1961,1.1971,1.1967,1.1637,1.1914,1.1912,1.191,1.1909,1.1908,1.1842,1.1893,1.1891,1.1932,1.1937,1.1953,1.1999,1.1982,1.2022,1.2058,1.2026,1.2088,1.2096,1.2137,1.2146,1.2196,1.2153,1.2188,1.2196,1.2206,1.2219,1.1961,1.2203,1.2202,1.2201,1.2201,1.22,0,1.2098,1.2091,1.213,1.2151,1.2184,1.2125,1.214,1.2173,1.2226,1.2236,1.227,1.233,1.2375,1.2362,1.2403,1.2446,1.2423,1.2459,1.2456,1.2458,1.2255,1.223,1.2477,1.2477,1.2477,1.2477,1.2477,1.2477,1.2235,1.2319,1.2295,1.2381,1.2375,1.2431,1.2444,1.246,1.2467,1.2535,1.257,1.2559,1.2561,1.2602,1.2642,1.2637,1.2656,1.2702,1.2689,1.25,1.2472,1.2446,1.2423,1.2706,1.2707,1.2887,1.2889,1.289]},{"header":{"parameterUnit":"m.s-1","parameterCategory":1,"la1":30.2991,"la2":30.254,"lo1":-89.0895,"lo2":-89.0444,"dy":0.0017,"dx":0.0017,"nx":28,"ny":28,"refTime":"2025-07-23T21:00:00:Z","depth":0,"parameterNumber":3,"parameterNumberName":"V-component_of_WINDS"},"data":[0,0,0,0,0,0,0,0,0,0,0,0,0,0,0,0,0,0,0,0,0,0,0,0,0,0,0,0,0,0,0,0,0,0,0,0,0,0,0,0,0,0,0,0,0,0,0,0,0,0,0,0,0,0,0,0,0,0,-0.2408,-0.2409,0,-0.2461,-0.2461,-0.2462,-0.2528,-0.2529,-0.253,-0.2531,-0.2582,-0.2583,-0.2583,0,0,0,0,0,0,0,0,0,0,0,0,0,-0.2361,-0.2362,-0.2408,-0.2409,-0.2409,-0.2461,-0.2461,-0.2462,-0.2528,-0.2529,-0.253,-0.2531,-0.2582,-0.2582,-0.2583,0,0,0,0,0,0,0,0,0,0,0,0,0,-0.2394,-0.2362,-0.2408,-0.2448,-0.2452,-0.2461,-0.2461,-0.2462,-0.2527,-0.2529,-0.253,-0.2532,-0.2582,-0.2582,-0.2583,-0.2555,0,0,-0.2585,-0.2585,0,0,0,0,0,0,0,0,-0.2392,-0.2396,-0.2442,-0.2446,-0.245,-0.2489,-0.2464,-0.2493,-0.2527,-0.2499,-0.2531,-0.2533,-0.255,-0.2553,-0.2559,-0.2557,-0.256,-0.2585,-0.2585,-0.2585,-0.2586,0,0,0,0,0,0,0,-0.239,-0.2394,-0.2429,-0.2442,-0.2447,-0.2463,-0.2469,-0.247,-0.2515,-0.2501,-0.2506,-0.2512,-0.2552,-0.2559,-0.2561,-0.256,-0.2585,-0.2585,-0.2586,-0.2586,-0.2539,-0.2537,0,0,0,0,0,0,-0.2382,-0.2392,-0.2427,-0.243,-0.2425,-0.2462,-0.247,-0.2475,-0.2515,-0.2523,-0.251,-0.2515,-0.2557,-0.256,-0.2563,-0.2534,-0.2585,-0.2586,-0.2586,-0.254,-0.2538,-0.2536,0,0,0,0,0,0,-0.2381,-0.2385,-0.2425,-0.2413,-0.2419,-0.2462,-0.2467,-0.2475,-0.2482,-0.2522,-0.253,-0.2509,-0.2558,-0.2562,-0.2557,-0.2537,-0.2586,-0.2587,-0.2542,-0.254,-0.2537,-0.2475,0,0,0,0,0,0,-0.2379,-0.2384,-0.2374,-0.2412,-0.2419,-0.2418,-0.2466,-0.2475,-0.2483,-0.2489,-0.2522,-0.2529,-0.256,-0.2556,-0.2557,-0.2538,-0.2587,-0.2544,-0.2541,-0.2538,-0.2479,-0.247,-0.2463,0,0,0,0,0,-0.2377,-0.2354,-0.2373,-0.2377,-0.2408,-0.2417,-0.2421,-0.2458,-0.2481,-0.2472,-0.2497,-0.2528,-0.2538,-0.2555,-0.2557,-0.2538,-0.2546,-0.2542,-0.2538,-0.2482,-0.2472,-0.2463,0,0,0,0,0,0,-0.2312,-0.2359,-0.2382,-0.237,-0.2389,-0.2428,-0.2418,-0.2446,-0.2458,-0.2463,-0.2507,-0.2514,-0.2503,-0.252,-0.2537,-0.2513,-0.2547,-0.2543,-0.2503,-0.2494,-0.2486,-0.2483,-0.2588,0,0,0,0,0,-0.2296,-0.23,-0.2341,-0.2327,-0.2335,-0.2374,-0.238,-0.2406,-0.2427,-0.2435,-0.2461,-0.2479,-0.2487,-0.2491,-0.25,-0.2481,-0.2489,-0.2469,-0.2461,-0.2454,-0.2452,-0.2443,-0.2435,-0.2525,-0.2525,-0.2525,0,0,-0.2263,-0.229,-0.229,-0.2314,-0.2332,-0.2335,-0.2381,-0.2381,-0.2384,-0.2435,-0.2432,-0.2451,-0.2475,-0.2463,-0.2459,-0.2476,-0.2428,-0.245,-0.2444,-0.2445,-0.2439,-0.243,-0.2423,-0.2522,-0.2523,-0.2523,0,0,-0.2206,-0.2226,-0.2217,-0.2234,-0.2261,-0.2287,-0.2284,-0.2319,-0.2334,-0.2332,-0.2371,-0.2374,-0.2385,-0.2401,-0.2411,-0.2358,-0.2388,-0.236,-0.232,-0.2311,-0.2304,-0.2298,-0.2281,-0.2274,-0.2356,-0.2356,-0.2356,0,-0.2162,-0.2168,-0.2208,-0.2207,-0.2216,-0.2263,-0.2254,-0.2268,-0.2296,-0.2301,-0.2321,-0.2337,-0.2356,-0.2349,-0.2336,-0.2342,-0.2341,-0.2357,-0.2302,-0.2297,-0.2292,-0.2275,-0.2268,-0.2353,-0.2353,-0.2353,-0.2354,0,-0.2113,-0.2117,-0.2106,-0.2133,-0.2141,-0.2135,-0.2173,-0.2177,-0.2202,-0.2226,-0.2223,-0.2247,-0.2263,-0.2262,-0.2287,-0.2258,-0.2269,-0.2294,-0.2329,-0.2279,-0.2264,-0.2258,-0.2348,-0.2349,-0.235,-0.2351,0,0,-0.2017,-0.2066,-0.2061,-0.2074,-0.2107,-0.2111,-0.2107,-0.2123,-0.2125,-0.2142,-0.214,-0.2149,-0.2173,-0.2184,-0.221,-0.2202,-0.216,-0.2229,-0.223,-0.2217,-0.2132,-0.2113,-0.2105,-0.2179,-0.2178,-0.2178,-0.213,0,-0.1966,-0.1964,-0.1999,-0.1987,-0.1991,-0.2036,-0.2032,-0.2052,-0.2074,-0.208,-0.2103,-0.2109,-0.214,-0.2147,-0.2142,-0.2167,-0.2144,-0.217,-0.2178,-0.2178,-0.2173,-0.2097,-0.2078,-0.2032,-0.2124,-0.2124,-0.2123,0,-0.1907,-0.1923,-0.1911,-0.1945,-0.1948,-0.1944,-0.1962,-0.1967,-0.199,-0.2006,-0.2018,-0.2048,-0.2046,-0.2078,-0.2076,-0.2093,-0.2098,-0.2111,-0.211,-0.2113,-0.2148,-0.21,-0.2018,-0.2011,-0.2114,-0.2115,-0.2115,0,-0.184,-0.1857,-0.1853,-0.1862,-0.1901,-0.1898,-0.1914,-0.1938,-0.1945,-0.196,-0.1965,-0.1979,-0.1986,-0.1996,-0.2029,-0.2049,-0.2023,-0.2058,-0.2037,-0.2036,-0.2031,-0.2031,-0.195,-0.2032,-0.2032,-0.2032,-0.2032,0,-0.178,-0.1772,-0.1823,-0.182,-0.1812,-0.1852,-0.1842,-0.1862,-0.1883,-0.1885,-0.1923,-0.1924,-0.1967,-0.1972,-0.1997,-0.1992,-0.1995,-0.2008,-0.2015,-0.2006,-0.2004,-0.2011,-0.2015,-0.203,-0.2031,-0.2031,-0.2031,0,-0.1704,-0.1738,-0.1736,-0.1773,-0.1783,-0.1775,-0.1806,-0.1805,-0.1829,-0.1831,-0.1833,-0.1871,-0.1879,-0.1912,-0.1928,-0.1945,-0.1932,-0.1945,-0.1925,-0.193,-0.1908,-0.191,-0.1829,-0.1821,-0.1906,-0.1905,-0.1905,0,-0.1665,-0.166,-0.1696,-0.1701,-0.1715,-0.1721,-0.1729,-0.1768,-0.1774,-0.1799,-0.1795,-0.1806,-0.1818,-0.1828,-0.1857,-0.1869,-0.1883,-0.1854,-0.1886,-0.1876,-0.1884,-0.1885,-0.1885,-0.1848,-0.1847,-0.1846,-0.1845,0,-0.1592,-0.1609,-0.1619,-0.1635,-0.1644,-0.1658,-0.1674,-0.1675,-0.1718,-0.1723,-0.1732,-0.1741,-0.1758,-0.1768,-0.1785,-0.1801,-0.183,-0.1835,-0.1831,-0.1822,-0.1811,-0.1818,-0.1908,-0.1837,-0.1838,-0.1838,-0.1839,-0.1839,-0.1534,-0.1532,-0.1557,-0.1567,-0.1584,-0.1598,-0.1599,-0.1624,-0.1632,-0.1649,-0.1671,-0.1677,-0.17,-0.1726,-0.174,-0.1745,-0.1761,-0.1755,-0.1754,-0.1752,-0.1748,-0.1808,-0.1748,-0.1748,-0.1748,-0.1749,-0.1749,0,-0.1464,-0.1483,-0.1492,-0.1514,-0.1522,-0.1548,-0.1568,-0.1573,-0.1578,-0.1597,-0.1607,-0.1618,-0.1629,-0.1658,-0.1671,-0.167,-0.1683,-0.1672,-0.1673,-0.1677,-0.1732,-0.1735,-0.1661,-0.1661,-0.1661,-0.1661,-0.1661,-0.1661,-0.1429,-0.1426,-0.1446,-0.1452,-0.1471,-0.1478,-0.1487,-0.15,-0.1516,-0.1526,-0.1536,-0.1554,-0.1577,-0.1593,-0.1604,-0.1612,-0.1616,-0.16,-0.1613,-0.1664,-0.1673,-0.1681,-0.1684,-0.16,-0.16,-0.1557,-0.1557,-0.1557]}]]